Temperature
-2 -3 -4 -4 -5 -6 -7 -7 -7 -7 -7 -7 -7 -7 -7 -6 -6 -6 -5 -5 -4 -3 -2 -1 -0 1 2 2 3 4 5 6 8 10 11 12 13 14 15 15 16 16 16
-3 -4 -4 -5 -6 -7 -8 -8 -8 -8 -8 -8 -8 -8 -8 -8 -7 -7 -7 -6 -5 -4 -3 -2 -1 -0 1 1 2 3 3 5 7 9 10 11 12 13 14 15 15 15 16
-4 -5 -5 -6 -7 -8 -8 -8 -9 -9 -9 -9 -9 -9 -9 -9 -8 -8 -8 -7 -6 -5 -4 -3 -2 -1 0 1 1 2 3 4 5 7 9 10 11 12 13 14 15 15 15
-5 -5 -6 -7 -8 -8 -9 -9 -9 -9 -10 -10 -10 -10 -10 -9 -9 -9 -8 -8 -7 -6 -5 -4 -3 -2 -0 0 1 1 2 2 4 6 8 9 10 12 13 14 14 15 15
-5 -6 -7 -8 -9 -9 -9 -10 -10 -10 -10 -10 -10 -10 -10 -10 -10 -10 -9 -9 -8 -7 -5 -4 -3 -2 -1 -1 -0 0 1 2 2 4 7 9 10 11 12 13 14 15 15
-6 -7 -8 -8 -9 -9 -10 -10 -10 -10 -11 -11 -11 -11 -11 -11 -11 -10 -10 -9 -8 -7 -5 -4 -4 -3 -3 -2 -1 -1 0 1 2 3 5 8 9 10 11 12 13 14 15
-7 -8 -8 -9 -9 -10 -10 -10 -11 -11 -11 -11 -11 -11 -11 -11 -11 -11 -10 -10 -9 -8 -7 -6 -5 -4 -4 -3 -3 -2 -1 0 1 2 4 6 8 9 10 12 13 14 14
-7 -8 -9 -9 -10 -10 -10 -10 -11 -11 -11 -11 -11 -12 -12 -11 -11 -11 -11 -11 -10 -10 -9 -7 -6 -5 -5 -4 -4 -3 -2 -1 0 1 3 4 7 9 10 11 12 13 14
-8 -8 -9 -10 -10 -10 -10 -10 -11 -11 -11 -11 -11 -12 -12 -12 -12 -12 -11 -11 -11 -10 -9 -8 -7 -6 -5 -5 -4 -4 -3 -2 -1 0 2 3 5 8 9 10 12 13 14
-8 -8 -9 -10 -10 -10 -10 -10 -10 -11 -11 -11 -11 -11 -12 -12 -12 -12 -12 -11 -11 -10 -10 -9 -8 -7 -6 -5 -5 -4 -3 -2 -1 -0 1 2 4 6 8 10 11 12 13
-8 -9 -10 -10 -10 -10 -10 -11 -10 -11 -11 -11 -11 -11 -11 -11 -12 -12 -12 -11 -11 -10 -10 -9 -8 -7 -6 -5 -5 -4 -4 -3 -2 -1 -0 1 3 5 7 9 10 12 13
-8 -9 -10 -10 -10 -11 -11 -11 -11 -10 -11 -11 -11 -11 -11 -11 -11 -11 -12 -12 -11 -10 -9 -9 -8 -7 -6 -5 -5 -4 -4 -3 -3 -2 -1 1 2 4 6 8 9 11 12
-8 -9 -10 -10 -11 -11 -11 -11 -11 -11 -11 -11 -11 -11 -11 -11 -11 -11 -11 -11 -11 -10 -9 -9 -8 -7 -6 -6 -5 -5 -4 -4 -3 -3 -1 0 2 3 5 7 9 10 11
-8 -9 -10 -10 -11 -11 -11 -11 -11 -11 -11 -11 -11 -11 -11 -11 -11 -11 -11 -11 -11 -10 -9 -9 -8 -7 -7 -6 -6 -5 -5 -5 -4 -3 -2 -0 1 3 5 6 8 10 11
-8 -9 -10 -10 -11 -11 -11 -11 -11 -11 -11 -11 -11 -11 -11 -11 -11 -11 -11 -10 -10 -10 -9 -9 -8 -8 -8 -7 -6 -6 -5 -5 -4 -3 -2 -1 1 3 4 6 7 9 10
-8 -9 -10 -11 -11 -11 -12 -12 -11 -11 -11 -11 -11 -11 -11 -12 -12 -11 -11 -11 -10 -10 -10 -9 -9 -9 -8 -8 -7 -7 -6 -5 -5 -3 -2 -1 1 3 4 5 7 8 10
-8 -9 -10 -10 -11 -11 -12 -12 -12 -11 -11 -11 -11 -11 -12 -12 -12 -12 -12 -11 -10 -10 -10 -10 -9 -9 -9 -8 -8 -7 -7 -5 -4 -3 -2 -1 0 2 3 5 6 8 9
-8 -9 -9 -10 -11 -11 -12 -12 -12 -11 -11 -11 -11 -12 -12 -13 -13 -12 -12 -11 -11 -10 -10 -10 -10 -9 -9 -9 -8 -8 -7 -6 -4 -3 -2 -1 0 2 3 4 6 7 9
-8 -8 -9 -10 -10 -11 -11 -12 -11 -11 -11 -11 -11 -12 -12 -12 -12 -12 -12 -11 -11 -11 -10 -11 -10 -10 -10 -9 -9 -8 -7 -6 -4 -3 -2 -1 0 1 3 4 6 7 8
-7 -8 -9 -9 -10 -10 -11 -11 -11 -11 -11 -11 -11 -12 -12 -12 -12 -12 -11 -11 -11 -10 -11 -11 -11 -10 -10 -10 -9 -9 -7 -6 -5 -3 -2 -1 0 1 3 4 6 7 8
-7 -8 -9 -9 -9 -9 -10 -10 -10 -10 -10 -10 -11 -11 -12 -12 -12 -12 -11 -11 -10 -11 -11 -11 -11 -11 -11 -10 -10 -10 -9 -7 -4 -3 -2 -1 0 1 3 4 5 6 7
-7 -8 -9 -9 -9 -9 -10 -10 -9 -9 -10 -10 -11 -11 -12 -12 -12 -12 -11 -11 -11 -11 -11 -11 -11 -11 -11 -11 -11 -10 -10 -9 -6 -3 -2 -1 0 1 2 4 5 6 7
-7 -8 -8 -9 -9 -9 -10 -9 -9 -9 -10 -10 -11 -11 -12 -12 -12 -11 -11 -12 -12 -12 -12 -11 -11 -11 -11 -11 -11 -11 -10 -9 -7 -4 -3 -1 0 1 2 4 5 6 7
-6 -8 -8 -9 -9 -9 -10 -9 -8 -9 -10 -10 -11 -11 -12 -12 -12 -11 -11 -12 -12 -12 -12 -12 -12 -12 -11 -11 -11 -11 -11 -9 -6 -4 -3 -2 1 2 3 3 5 6 7
-6 -7 -8 -9 -9 -9 -9 -9 -8 -9 -10 -10 -11 -12 -12 -12 -12 -11 -12 -12 -12 -12 -12 -12 -12 -12 -11 -11 -11 -11 -10 -9 -7 -4 -3 -2 0 2 3 3 4 5 7
-6 -7 -7 -9 -9 -10 -9 -9 -9 -9 -10 -10 -11 -11 -12 -12 -11 -11 -12 -12 -12 -12 -12 -12 -12 -12 -12 -12 -11 -11 -10 -10 -9 -6 -3 -2 -0 2 3 4 4 5 7
Wind_Speed
13 15 16 18 19 19 19 20 20 21 21 23 23 24 24 26 27 27 25 30 32 32 32 32 31 31 29 28 26 25 24 23 22 22 22 22 21 21 22 26 30 31 30
15 15 15 16 17 18 19 20 20 19 19 19 19 22 24 26 25 27 27 29 32 34 33 32 32 31 29 28 26 24 23 23 23 22 22 22 21 21 21 24 29 32 32
15 15 14 14 16 19 20 19 19 17 15 16 13 20 22 23 25 27 28 28 28 31 33 33 32 30 28 27 24 24 23 23 23 23 22 22 21 21 21 23 28 32 33
14 14 13 13 17 18 17 15 11 6 9 10 11 11 17 20 22 25 27 28 28 28 29 32 31 29 27 24 23 23 23 23 23 23 23 23 22 21 21 22 26 31 33
13 14 14 14 17 16 14 14 9 7 10 10 11 11 9 11 16 24 24 28 29 29 27 29 30 28 25 22 22 23 24 23 23 23 24 23 23 21 21 22 25 30 33
12 13 13 14 16 11 8 8 9 8 8 10 15 15 12 12 13 13 18 22 24 25 23 21 17 16 18 19 21 22 23 23 23 23 23 23 23 22 21 22 23 29 34
12 13 12 13 13 7 7 8 9 10 9 8 11 13 11 11 14 13 11 14 19 23 22 18 12 9 10 16 19 21 22 22 22 22 22 23 23 23 22 22 22 26 33
12 12 11 11 12 8 8 9 9 8 11 9 10 15 14 13 10 13 13 15 16 18 18 20 16 14 12 12 16 21 22 22 22 22 22 22 23 23 22 22 22 25 31
12 12 12 12 12 9 7 9 9 10 12 11 7 8 11 14 15 12 12 14 14 15 15 14 16 14 15 13 14 18 21 22 21 21 21 22 22 22 22 22 21 23 28
12 13 13 13 12 11 7 8 8 9 10 12 10 7 8 11 13 16 10 9 14 15 14 14 13 15 16 15 16 20 21 21 20 20 20 21 21 20 21 21 20 21 25
11 13 13 12 12 11 10 9 8 9 8 10 11 11 11 10 10 11 15 15 12 11 12 14 12 12 17 17 15 17 20 20 19 19 20 21 21 20 19 19 18 18 21
8 11 13 13 14 13 11 9 8 10 9 9 10 10 11 11 11 10 12 14 14 13 13 13 13 12 14 15 17 18 18 18 18 20 21 21 22 21 19 19 18 16 16
5 6 11 12 13 14 14 12 8 10 9 9 10 10 11 11 12 12 12 13 14 13 11 12 11 9 11 10 10 15 15 17 19 21 21 21 21 21 20 19 17 16 15
5 10 12 13 14 15 15 12 7 9 8 8 12 11 10 11 11 11 11 12 12 11 9 10 9 8 8 11 14 18 13 19 21 22 22 21 21 21 20 18 17 16 15
9 11 12 12 13 13 12 10 7 10 9 8 9 10 9 10 11 11 11 11 10 11 11 8 8 9 9 11 16 15 12 19 23 23 23 23 22 22 21 18 17 15 14
9 10 9 10 10 10 10 7 8 10 10 9 8 9 9 10 10 10 10 11 10 9 10 7 9 10 11 13 19 16 15 22 24 25 25 24 23 23 21 19 17 15 14
8 7 8 7 7 7 7 7 9 11 11 10 9 10 11 12 10 10 11 10 10 9 11 10 8 10 12 12 11 12 14 13 16 24 25 24 23 22 21 19 16 15 14
8 9 9 7 9 10 8 9 11 12 11 11 11 10 11 12 11 11 10 11 11 9 9 13 11 10 12 12 11 11 12 13 12 21 24 24 22 21 21 19 17 15 13
7 8 7 9 9 9 10 11 11 12 12 12 11 11 12 11 12 12 12 12 11 10 7 10 12 10 10 10 10 11 13 11 13 16 20 21 22 21 20 19 17 14 12
8 8 8 8 9 9 11 13 13 13 13 12 12 12 11 11 12 12 12 12 11 9 8 9 10 10 9 9 8 10 12 11 12 13 14 15 17 20 21 20 18 14 11
9 7 9 9 9 10 11 14 13 11 11 11 12 11 11 15 18 16 14 11 10 7 8 9 10 10 9 8 8 9 12 12 13 8 8 9 9 8 10 16 16 13 11
8 8 9 9 12 12 22 27 19 8 8 10 10 9 9 11 17 23 25 22 17 11 10 9 8 8 9 8 8 10 11 12 8 7 9 10 8 8 8 8 12 12 10
8 9 8 9 12 16 26 26 25 13 9 8 8 7 8 10 16 12 16 16 16 19 19 13 9 9 10 9 10 11 10 12 12 11 10 9 7 8 7 9 13 12 10
8 8 9 10 12 16 25 26 24 11 7 7 7 6 7 8 13 16 9 8 9 10 14 10 9 10 11 10 10 11 12 12 13 12 10 6 7 6 7 6 11 11 10
8 8 8 9 10 14 23 25 20 6 6 7 7 7 9 8 19 22 12 11 11 10 13 17 18 16 17 16 12 7 7 9 8 5 3 4 5 4 4 6 8 11 9
7 7 8 8 9 10 19 23 20 4 6 6 6 7 13 16 20 21 10 10 13 10 9 12 13 14 11 12 14 7 5 7 6 5 4 5 4 3 3 3 4 5 6
Wind_Direction
343 337 334 332 330 331 333 333 328 324 323 320 317 317 318 316 311 307 304 302 299 297 295 291 288 286 283 281 281 282 282 283 286 291 293 286 283 278 258 233 218 209 205
345 338 333 329 329 333 332 327 324 322 319 316 316 318 315 312 309 308 307 305 301 296 293 290 287 283 280 277 276 279 280 282 284 289 294 294 283 281 270 244 224 212 205
344 340 330 327 329 330 329 325 319 317 318 320 318 315 310 308 307 306 304 301 297 294 291 288 285 281 276 272 272 275 278 280 282 285 292 297 290 280 275 256 231 217 207
342 339 329 323 325 329 325 319 314 322 318 314 311 308 306 304 303 305 304 300 296 291 287 285 283 280 276 271 271 274 276 278 280 282 286 293 295 285 276 264 240 221 210
340 337 323 318 326 323 318 319 327 316 312 311 309 305 306 309 306 304 302 298 292 284 278 275 275 276 274 272 273 274 274 276 277 279 281 286 293 291 282 269 249 228 214
335 330 316 320 321 316 313 313 310 308 308 309 311 311 305 301 302 299 299 306 307 293 281 274 272 278 277 277 277 276 274 275 275 276 278 281 287 291 286 274 257 236 218
325 317 312 313 314 309 306 306 310 310 309 308 312 311 304 298 296 298 304 317 311 312 307 302 300 301 295 286 285 284 279 276 276 276 278 280 283 289 288 277 262 243 224
314 312 310 307 306 304 304 306 309 308 312 316 312 312 312 310 301 307 310 304 308 315 317 314 314 308 297 286 281 280 280 278 277 277 278 280 279 283 288 281 265 248 229
311 308 306 303 303 302 298 301 303 310 312 309 297 300 307 308 311 301 297 300 304 305 301 300 300 293 289 283 277 279 277 275 276 279 278 282 280 278 285 284 269 254 234
313 312 306 305 304 300 293 301 314 304 306 310 308 288 278 288 298 305 302 296 300 302 307 310 310 307 297 287 279 276 273 273 273 276 279 282 285 281 281 288 275 259 240
310 309 307 310 304 299 294 296 300 301 302 302 308 306 299 292 281 289 300 306 305 302 302 304 301 296 288 279 272 270 270 270 272 277 283 285 290 292 289 292 288 270 249
301 306 312 313 306 299 296 296 298 302 301 302 307 304 301 297 294 287 289 296 299 299 297 295 290 285 281 272 267 271 273 275 277 280 283 285 289 296 298 299 301 293 267
298 297 311 305 299 297 300 302 304 304 302 308 311 310 306 299 295 287 282 286 289 292 291 291 287 290 296 297 292 290 286 285 283 283 282 282 285 291 296 297 300 303 287
283 296 303 300 298 301 308 309 306 304 303 306 311 310 311 309 305 298 288 285 288 292 293 291 302 304 313 317 311 303 299 292 286 283 280 279 280 283 289 292 294 301 299
295 302 301 297 299 304 307 312 307 302 300 299 302 303 307 309 308 305 300 295 288 297 304 303 311 315 319 314 310 305 294 291 287 283 280 277 277 278 281 286 290 293 298
296 296 295 297 298 303 308 311 306 299 298 297 300 301 305 306 307 308 308 307 301 297 301 302 307 309 313 312 308 310 309 299 291 286 280 273 269 269 271 275 282 287 290
293 294 296 296 298 299 299 297 295 297 294 295 297 302 302 304 305 310 310 310 311 306 305 307 306 306 303 302 301 301 301 293 285 280 276 271 264 262 262 265 271 279 284
293 294 296 299 302 301 291 287 289 294 288 288 290 292 295 303 303 305 305 305 305 302 303 311 311 310 305 303 303 308 308 300 288 279 273 269 263 257 255 257 260 269 276
291 295 296 297 294 292 290 285 280 281 279 277 280 282 286 291 296 298 297 298 299 303 301 302 306 307 306 310 316 315 311 306 301 289 278 267 259 253 249 249 250 258 265
292 291 290 289 293 293 288 282 278 277 274 272 274 276 278 282 285 288 296 295 297 298 298 299 301 304 307 312 322 322 318 317 311 300 287 275 258 249 243 242 242 247 256
290 285 289 292 294 294 285 279 274 272 271 270 271 273 277 297 310 313 314 311 307 302 303 300 298 303 308 318 319 319 315 316 308 296 309 290 268 244 230 234 232 236 242
283 285 285 289 294 297 301 308 315 296 282 277 274 274 283 302 311 320 318 320 327 320 308 301 300 301 300 303 308 309 312 313 311 327 335 304 277 248 225 218 216 219 229
282 282 282 285 288 294 306 314 322 327 304 298 286 287 305 314 320 303 308 327 327 321 317 311 302 290 289 289 294 297 296 297 289 294 304 290 268 247 225 216 207 211 225
275 276 279 283 287 297 312 319 328 335 311 301 294 294 294 298 308 317 337 327 309 305 306 306 286 279 278 272 266 275 285 293 289 276 253 263 269 247 219 205 201 206 222
278 279 280 284 290 304 317 323 336 324 313 309 307 313 319 307 316 334 347 329 316 309 322 324 319 314 309 305 297 289 289 297 299 293 281 267 276 258 208 198 197 200 217
281 287 292 295 301 306 319 329 338 324 313 314 313 318 326 324 329 340 345 329 322 331 335 326 322 316 309 303 303 291 273 279 283 288 312 325 291 274 199 184 185 193 204
Height
1547 1543 1539 1535 1531 1527 1524 1520 1516 1512 1508 1504 1500 1497 1493 1488 1485 1482 1478 1476 1475 1473 1473 1472 1472 1471 1471 1471 1471 1472 1474 1476 1479 1482 1485 1488 1492 1496 1500 1505 1511 1517 1522
1544 1540 1535 1531 1528 1524 1521 1517 1513 1509 1505 1501 1497 1493 1488 1484 1479 1475 1472 1468 1466 1465 1464 1464 1464 1463 1463 1464 1464 1465 1466 1468 1471 1474 1477 1480 1484 1488 1492 1497 1503 1509 1515
1541 1537 1532 1529 1525 1521 1517 1514 1510 1506 1502 1498 1493 1488 1484 1479 1474 1470 1465 1461 1458 1456 1455 1455 1455 1455 1456 1456 1457 1458 1459 1460 1462 1465 1469 1472 1476 1480 1484 1489 1495 1501 1508
1539 1534 1530 1526 1522 1519 1515 1511 1507 1503 1498 1494 1489 1484 1479 1474 1469 1464 1459 1455 1451 1448 1446 1446 1447 1447 1448 1449 1449 1450 1451 1452 1454 1456 1460 1464 1468 1472 1476 1481 1487 1493 1499
1536 1532 1527 1523 1520 1516 1512 1509 1505 1500 1495 1490 1485 1480 1475 1469 1464 1459 1454 1449 1444 1441 1439 1438 1439 1440 1440 1441 1441 1442 1444 1445 1446 1448 1451 1455 1459 1463 1468 1473 1478 1484 1491
1533 1529 1524 1521 1517 1513 1509 1506 1502 1497 1492 1487 1481 1475 1470 1464 1459 1453 1449 1444 1438 1435 1434 1433 1433 1432 1432 1433 1434 1435 1437 1438 1439 1441 1443 1447 1451 1455 1460 1464 1469 1476 1482
1530 1526 1522 1518 1514 1511 1507 1503 1499 1494 1488 1484 1477 1470 1464 1459 1453 1448 1444 1438 1433 1429 1427 1426 1426 1425 1424 1425 1426 1428 1429 1431 1433 1434 1435 1438 1442 1446 1451 1456 1461 1467 1474
1527 1523 1519 1515 1511 1508 1504 1500 1496 1491 1485 1481 1475 1467 1459 1453 1448 1444 1439 1434 1429 1425 1421 1419 1418 1418 1418 1419 1419 1420 1422 1424 1425 1427 1428 1430 1434 1438 1443 1447 1452 1458 1465
1524 1520 1516 1512 1509 1505 1501 1497 1494 1489 1483 1476 1473 1468 1459 1450 1443 1437 1433 1429 1425 1421 1417 1414 1413 1413 1413 1413 1414 1414 1415 1416 1418 1419 1421 1423 1426 1430 1435 1439 1444 1449 1456
1521 1517 1513 1509 1506 1502 1498 1495 1491 1486 1481 1474 1468 1463 1459 1451 1444 1433 1427 1424 1421 1417 1413 1411 1409 1408 1408 1408 1408 1408 1409 1410 1411 1412 1414 1416 1419 1423 1427 1431 1436 1441 1447
1517 1513 1510 1506 1502 1499 1495 1491 1487 1483 1478 1472 1466 1459 1453 1447 1441 1436 1426 1419 1415 1412 1409 1407 1405 1403 1403 1403 1402 1402 1403 1404 1405 1405 1406 1408 1411 1415 1419 1423 1427 1432 1438
1513 1510 1506 1502 1498 1495 1491 1487 1483 1479 1474 1469 1463 1457 1450 1444 1437 1432 1425 1418 1413 1407 1405 1403 1401 1400 1398 1398 1398 1398 1398 1398 1398 1398 1399 1400 1403 1406 1410 1415 1419 1424 1429
1509 1505 1502 1498 1494 1491 1487 1483 1479 1475 1470 1465 1459 1453 1448 1442 1436 1429 1423 1417 1411 1405 1402 1400 1398 1396 1394 1393 1392 1392 1392 1391 1391 1391 1392 1393 1396 1399 1403 1407 1411 1416 1421
1505 1502 1498 1494 1490 1487 1483 1479 1474 1470 1466 1461 1455 1450 1444 1438 1433 1427 1422 1415 1409 1403 1399 1396 1394 1392 1390 1388 1387 1387 1385 1385 1385 1384 1385 1386 1389 1392 1396 1400 1404 1409 1414
1502 1498 1494 1490 1486 1482 1478 1474 1469 1465 1461 1457 1451 1446 1440 1434 1429 1424 1419 1414 1409 1402 1396 1393 1391 1388 1386 1384 1382 1381 1380 1379 1378 1377 1378 1379 1382 1385 1389 1393 1397 1402 1407
1498 1494 1490 1486 1482 1478 1474 1469 1465 1460 1457 1452 1447 1441 1435 1430 1424 1419 1415 1411 1407 1402 1396 1391 1388 1385 1382 1380 1377 1376 1373 1372 1370 1370 1371 1372 1375 1378 1382 1386 1391 1395 1400
1495 1490 1486 1482 1478 1473 1469 1465 1460 1456 1452 1447 1443 1437 1431 1425 1420 1415 1411 1407 1403 1400 1394 1388 1385 1381 1378 1375 1372 1369 1366 1364 1363 1362 1364 1365 1368 1371 1375 1379 1384 1389 1394
1491 1487 1483 1478 1473 1469 1464 1460 1455 1451 1447 1442 1437 1432 1427 1421 1416 1411 1407 1403 1399 1396 1392 1385 1379 1377 1374 1371 1367 1364 1360 1358 1356 1356 1357 1358 1361 1364 1368 1372 1377 1382 1387
1487 1483 1479 1474 1469 1464 1459 1455 1450 1446 1441 1436 1432 1427 1422 1417 1412 1407 1403 1398 1395 1391 1387 1382 1376 1372 1369 1366 1362 1358 1355 1352 1350 1350 1350 1352 1354 1357 1360 1365 1370 1376 1381
1483 1479 1475 1470 1465 1460 1455 1450 1445 1441 1436 1431 1426 1422 1418 1414 1409 1404 1399 1395 1390 1386 1382 1377 1372 1368 1365 1362 1358 1353 1348 1346 1344 1344 1344 1345 1347 1350 1354 1358 1364 1369 1374
1479 1475 1471 1467 1462 1457 1451 1445 1440 1436 1431 1425 1421 1417 1414 1410 1406 1401 1396 1391 1386 1381 1377 1372 1368 1364 1360 1357 1354 1350 1346 1341 1340 1340 1339 1340 1341 1344 1346 1351 1357 1362 1368
1475 1472 1468 1463 1459 1454 1448 1443 1439 1432 1427 1421 1417 1413 1410 1406 1401 1397 1391 1387 1382 1377 1372 1368 1363 1359 1355 1353 1349 1346 1343 1340 1336 1336 1335 1335 1337 1338 1341 1345 1350 1356 1362
1471 1467 1464 1460 1455 1450 1445 1441 1435 1429 1423 1418 1414 1410 1406 1402 1397 1391 1386 1382 1377 1373 1369 1365 1359 1354 1350 1347 1345 1342 1339 1337 1333 1332 1332 1330 1332 1333 1336 1339 1344 1350 1356
1467 1463 1460 1456 1451 1447 1443 1438 1432 1426 1420 1415 1411 1407 1402 1398 1393 1388 1382 1377 1372 1368 1363 1359 1354 1349 1346 1343 1341 1338 1336 1332 1329 1329 1329 1327 1327 1328 1331 1334 1338 1344 1351
1463 1460 1456 1452 1448 1444 1440 1435 1429 1423 1418 1413 1408 1404 1400 1395 1390 1385 1379 1373 1368 1362 1357 1352 1348 1344 1341 1338 1337 1335 1332 1329 1326 1325 1326 1325 1324 1324 1326 1329 1334 1339 1345
1460 1456 1453 1449 1445 1441 1437 1432 1427 1421 1415 1410 1406 1401 1397 1393 1388 1383 1377 1371 1365 1359 1352 1346 1342 1338 1335 1332 1331 1330 1327 1326 1324 1322 1322 1321 1320 1321 1323 1324 1329 1334 1340